Temp
66 66 64 64 63 64 64 63 63 64 64 65 65 65 63 63 63 62 57 68 68 69 70 71 71 72 72 72 72 72 72 73 73 74 74 76 77 77 76 76 75 75 74
66 65 65 64 63 64 64 64 63 62 62 62 64 65 63 62 63 63 58 59 68 68 68 69 69 70 70 71 71 71 71 71 72 72 72 72 73 76 77 76 75 75 74
67 66 64 63 63 64 65 64 63 62 62 65 61 62 64 62 63 62 62 57 61 67 67 67 67 67 68 69 69 69 69 70 70 71 71 71 71 72 74 76 76 75 75
68 65 64 63 63 63 62 61 60 59 59 59 58 60 60 62 62 62 62 60 59 61 64 67 66 66 66 67 68 68 68 69 69 69 70 70 71 71 71 73 75 75 75
68 64 63 62 63 61 60 61 59 59 57 57 60 60 60 59 60 66 60 61 59 58 58 65 68 67 66 67 67 67 67 67 68 68 69 69 70 71 71 71 72 73 75
66 64 62 62 61 59 58 58 58 58 57 57 65 62 58 59 59 58 59 62 59 59 58 59 56 59 67 69 69 68 67 67 67 67 67 68 69 70 71 71 70 71 72
65 63 60 61 59 58 57 59 58 57 55 56 54 54 56 59 57 58 59 59 59 59 57 58 56 56 59 70 69 69 69 68 67 66 67 67 68 69 70 71 71 70 70
65 64 60 59 59 57 58 57 57 54 55 55 52 50 48 52 55 59 57 60 58 58 59 61 58 58 57 56 60 68 67 66 66 66 66 66 67 68 68 69 70 71 71
66 66 62 60 59 57 55 55 55 54 51 53 55 51 47 46 49 54 56 56 56 55 56 57 59 60 58 56 60 61 66 66 67 66 65 66 66 67 67 68 69 70 71
66 65 64 61 61 57 56 56 58 54 53 50 52 58 52 51 46 46 52 53 56 57 55 55 55 57 57 56 62 65 66 67 66 65 65 65 65 66 66 67 68 68 69
66 66 65 63 61 60 57 57 56 55 53 51 50 50 50 50 50 46 43 48 52 54 54 54 54 55 57 56 55 59 66 66 65 65 65 65 65 65 66 67 67 68 68
65 65 66 64 62 61 58 58 56 55 53 53 52 51 49 48 47 46 44 45 46 49 52 53 52 53 55 55 61 65 66 66 65 65 65 65 65 65 65 66 66 67 68
63 64 64 63 62 60 57 56 55 54 54 52 52 51 51 50 51 49 46 44 44 47 49 51 53 53 58 54 55 63 64 66 65 65 65 64 65 65 64 64 64 65 67
64 65 64 64 63 59 58 56 53 53 54 52 52 51 50 51 51 50 47 45 41 43 45 47 51 52 53 54 57 64 57 64 65 65 65 65 64 64 64 64 63 63 64
66 64 64 63 63 61 59 55 54 53 53 52 51 51 50 50 51 50 49 48 44 38 40 44 46 51 52 53 56 56 55 61 64 64 64 64 64 64 64 64 62 62 63
65 64 62 63 61 61 59 56 53 53 52 51 52 51 50 50 50 50 49 48 47 43 40 45 47 49 52 58 57 57 55 62 63 63 63 62 63 63 63 62 62 61 61
66 63 63 62 61 60 60 57 55 54 53 51 52 51 51 51 49 49 48 47 46 45 42 45 48 50 49 50 52 52 54 52 54 61 62 62 61 61 61 61 61 61 61
67 65 63 62 62 61 60 58 56 57 54 51 51 51 51 56 49 49 47 47 46 47 44 44 45 47 47 49 50 51 54 58 55 60 62 61 61 60 60 60 60 60 60
68 66 63 61 61 60 59 58 58 56 54 52 51 51 51 51 48 47 47 47 47 51 46 44 45 45 46 48 50 49 51 53 56 59 61 61 60 59 59 59 58 58 58
68 65 62 61 61 60 60 59 58 54 54 53 53 52 52 51 49 48 49 47 48 45 44 43 43 44 46 47 48 47 48 51 51 57 59 59 59 59 59 59 59 58 57
67 66 62 61 60 60 61 58 57 55 52 51 52 54 52 55 60 56 51 46 45 43 42 41 43 44 47 45 45 47 46 49 51 52 52 53 53 54 54 57 58 58 57
63 64 62 60 59 62 62 61 58 54 53 52 50 51 53 59 58 60 59 58 53 43 42 41 46 46 47 47 48 49 47 45 43 54 49 48 53 51 54 53 56 58 57
61 62 62 60 58 58 63 62 60 53 51 50 50 50 53 58 55 51 57 58 56 57 57 50 48 46 47 46 47 47 47 46 46 50 49 46 51 49 53 55 56 57 57
59 60 61 59 57 57 62 62 61 51 50 50 50 50 49 50 51 51 48 47 47 48 50 53 50 48 49 51 51 50 48 47 48 49 50 44 49 48 51 52 56 57 57
54 60 60 58 56 56 61 61 58 50 50 49 51 51 50 49 56 57 48 45 45 47 56 57 56 56 56 57 56 49 46 45 44 46 51 48 49 48 49 50 52 56 56
50 60 59 59 58 54 60 60 56 51 47 49 49 50 56 51 57 56 46 44 42 44 45 47 48 50 53 51 54 50 47 44 45 47 51 48 49 49 47 51 52 54 54
MSLP
1016.10 1016.09 1016.44 1016.77 1017.05 1017.10 1017.34 1017.61 1017.73 1017.76 1017.78 1017.78 1017.83 1017.90 1018.02 1018.07 1018.28 1018.84 1019.14 1019.17 1019.35 1019.30 1019.23 1019.17 1019.11 1018.99 1018.91 1018.87 1018.85 1018.84 1018.79 1018.70 1018.56 1018.37 1018.22 1018.08 1018.13 1018.31 1018.46 1018.61 1018.82 1019.05 1019.27
1015.32 1015.71 1016.14 1016.47 1016.71 1016.84 1017.02 1017.33 1017.58 1017.69 1017.81 1017.96 1018.04 1017.96 1018.07 1018.16 1018.29 1018.59 1019.09 1019.28 1019.33 1019.44 1019.45 1019.45 1019.41 1019.29 1019.18 1019.14 1019.13 1019.12 1019.09 1018.99 1018.82 1018.70 1018.57 1018.42 1018.24 1018.02 1018.10 1018.30 1018.49 1018.72 1018.99
1014.84 1015.27 1015.80 1016.30 1016.40 1016.54 1016.76 1017.01 1017.28 1017.52 1017.81 1017.78 1018.08 1018.05 1018.06 1018.13 1018.26 1018.49 1018.77 1019.26 1019.35 1019.43 1019.52 1019.58 1019.62 1019.60 1019.49 1019.41 1019.37 1019.39 1019.34 1019.24 1019.09 1018.93 1018.86 1018.69 1018.51 1018.26 1018.02 1017.98 1018.16 1018.43 1018.65
1014.44 1014.89 1015.55 1015.93 1016.02 1016.35 1016.66 1017.10 1017.39 1017.64 1017.76 1017.92 1018.06 1018.01 1018.14 1018.14 1018.19 1018.38 1018.59 1018.95 1019.20 1019.44 1019.54 1019.51 1019.55 1019.64 1019.60 1019.51 1019.48 1019.47 1019.43 1019.34 1019.26 1019.17 1019.04 1018.86 1018.68 1018.49 1018.22 1018.02 1017.85 1018.00 1018.22
1014.10 1014.50 1014.99 1015.31 1015.58 1016.14 1016.66 1017.02 1017.29 1017.55 1017.83 1017.94 1017.97 1017.94 1017.97 1018.15 1018.12 1018.05 1018.47 1018.66 1018.89 1019.06 1019.26 1019.32 1019.30 1019.32 1019.44 1019.36 1019.37 1019.34 1019.38 1019.40 1019.35 1019.25 1019.09 1018.96 1018.75 1018.53 1018.34 1018.22 1017.86 1017.92 1017.68
1013.79 1014.16 1014.56 1014.92 1015.29 1016.09 1016.50 1016.77 1017.06 1017.32 1017.53 1017.74 1017.77 1017.85 1017.80 1017.82 1017.76 1018.15 1018.29 1018.30 1018.60 1018.76 1018.89 1019.15 1019.26 1019.20 1019.13 1019.03 1019.12 1019.13 1019.22 1019.22 1019.27 1019.21 1019.08 1018.93 1018.75 1018.60 1018.37 1018.17 1018.08 1017.91 1017.59
1013.46 1013.88 1014.26 1014.72 1015.02 1015.66 1016.05 1016.39 1016.75 1017.23 1017.51 1017.61 1018.19 1018.15 1017.87 1017.56 1017.71 1017.84 1017.87 1018.09 1018.25 1018.39 1018.54 1018.79 1018.99 1018.98 1018.92 1018.79 1018.86 1018.86 1018.97 1019.03 1019.16 1019.11 1019.06 1018.94 1018.76 1018.56 1018.36 1018.12 1017.94 1017.88 1017.72
1012.78 1013.25 1013.85 1014.24 1014.70 1015.29 1015.78 1016.07 1016.43 1017.01 1017.40 1017.46 1018.08 1018.41 1018.36 1018.08 1017.70 1017.57 1017.71 1017.91 1018.07 1018.20 1018.30 1018.35 1018.55 1018.62 1018.68 1018.72 1018.68 1018.59 1018.74 1018.88 1018.96 1018.96 1018.95 1018.83 1018.66 1018.50 1018.30 1018.13 1017.90 1017.65 1017.43
1012.40 1012.69 1013.16 1013.70 1014.15 1014.66 1015.20 1015.54 1015.95 1016.59 1017.28 1017.39 1017.46 1018.04 1018.33 1018.46 1018.07 1017.59 1017.60 1017.70 1017.92 1018.23 1018.32 1018.28 1018.19 1018.26 1018.31 1018.42 1018.41 1018.47 1018.45 1018.62 1018.61 1018.70 1018.74 1018.68 1018.56 1018.38 1018.19 1018.02 1017.82 1017.53 1017.24
1011.82 1012.34 1012.69 1013.08 1013.59 1014.08 1014.62 1015.01 1015.52 1016.03 1016.64 1017.36 1017.48 1017.39 1017.66 1017.89 1018.31 1018.46 1017.95 1017.87 1017.71 1018.02 1018.11 1018.12 1018.17 1018.10 1018.04 1018.12 1018.10 1018.11 1018.16 1018.18 1018.32 1018.50 1018.58 1018.50 1018.34 1018.16 1017.96 1017.77 1017.58 1017.35 1017.08
1011.00 1011.55 1012.08 1012.58 1012.97 1013.45 1013.93 1014.43 1015.01 1015.52 1016.02 1016.74 1017.02 1017.46 1017.67 1017.75 1017.98 1018.57 1018.80 1018.41 1017.97 1017.82 1017.96 1017.99 1017.82 1017.87 1017.76 1017.72 1017.82 1017.83 1017.75 1017.82 1017.98 1017.97 1018.06 1018.08 1018.02 1017.88 1017.67 1017.39 1017.19 1017.02 1016.79
1010.70 1010.98 1011.43 1011.95 1012.23 1012.73 1013.20 1013.73 1014.32 1014.94 1015.50 1015.98 1016.45 1016.91 1017.34 1017.73 1018.05 1018.48 1018.86 1018.78 1018.52 1018.24 1017.89 1017.77 1017.81 1017.71 1017.51 1017.41 1017.25 1017.08 1017.09 1017.15 1017.27 1017.39 1017.43 1017.41 1017.40 1017.38 1017.21 1017.02 1016.89 1016.57 1016.37
1009.88 1010.33 1010.79 1011.28 1011.67 1011.92 1012.47 1013.10 1013.74 1014.35 1014.94 1015.55 1015.99 1016.46 1016.63 1017.05 1017.33 1017.89 1018.48 1018.76 1018.82 1018.41 1018.12 1017.63 1017.48 1017.28 1017.07 1016.97 1016.90 1016.66 1016.60 1016.65 1016.70 1016.71 1016.73 1016.78 1016.68 1016.68 1016.68 1016.74 1016.70 1016.40 1016.03
1008.86 1009.55 1010.01 1010.40 1010.97 1011.49 1011.89 1012.43 1013.19 1013.83 1014.42 1015.03 1015.53 1015.89 1016.35 1016.58 1016.85 1017.41 1018.00 1018.52 1018.75 1018.68 1018.31 1017.90 1017.30 1017.02 1016.87 1016.76 1016.60 1016.36 1016.46 1016.32 1016.25 1016.18 1016.17 1016.18 1016.24 1016.22 1016.13 1016.07 1016.23 1016.14 1015.91
1007.61 1008.44 1009.16 1009.77 1010.19 1010.82 1011.33 1011.83 1012.55 1013.30 1013.88 1014.50 1015.06 1015.53 1015.94 1016.18 1016.49 1016.88 1017.27 1017.72 1018.33 1018.85 1018.26 1017.50 1017.43 1016.81 1016.66 1016.43 1016.26 1016.04 1015.96 1015.84 1015.63 1015.52 1015.40 1015.37 1015.45 1015.44 1015.40 1015.44 1015.64 1015.55 1015.41
1006.54 1007.29 1008.05 1008.83 1009.58 1010.17 1010.76 1011.37 1012.08 1012.67 1013.38 1013.99 1014.53 1015.08 1015.53 1015.85 1016.27 1016.56 1016.81 1017.14 1017.60 1018.11 1018.13 1017.35 1016.98 1016.49 1016.19 1015.87 1015.72 1015.53 1015.44 1015.21 1015.04 1014.85 1014.66 1014.53 1014.44 1014.38 1014.33 1014.44 1014.65 1014.83 1014.82
1005.73 1006.27 1007.02 1007.89 1008.63 1009.41 1010.04 1010.73 1011.40 1012.07 1012.84 1013.55 1014.02 1014.62 1015.07 1015.43 1015.96 1016.22 1016.44 1016.74 1017.18 1017.40 1017.52 1016.98 1016.54 1016.12 1015.91 1015.61 1015.41 1015.25 1015.10 1014.86 1014.67 1014.36 1014.09 1013.82 1013.78 1013.73 1013.68 1013.60 1013.71 1013.93 1013.93
1004.90 1005.19 1005.95 1006.97 1007.73 1008.55 1009.27 1009.88 1010.54 1011.08 1012.04 1012.88 1013.56 1014.08 1014.59 1015.00 1015.57 1015.79 1016.10 1016.60 1016.68 1016.71 1016.86 1016.59 1016.14 1015.98 1015.72 1015.26 1014.97 1014.78 1014.39 1013.99 1013.77 1013.46 1013.15 1013.03 1012.92 1012.75 1012.68 1012.81 1012.96 1013.15 1013.29
1003.80 1004.28 1005.02 1006.08 1006.98 1007.77 1008.57 1009.29 1009.81 1010.34 1011.25 1011.96 1012.81 1013.48 1014.12 1014.69 1015.27 1015.51 1015.72 1016.07 1016.07 1015.99 1016.17 1016.12 1015.87 1015.61 1015.31 1015.00 1014.55 1014.07 1013.77 1013.28 1012.87 1012.40 1011.99 1011.78 1011.72 1011.62 1011.54 1011.63 1011.83 1012.16 1012.53
1003.10 1003.55 1004.24 1005.26 1006.21 1007.15 1007.87 1008.62 1009.27 1009.87 1010.62 1011.31 1012.04 1012.73 1013.41 1014.01 1014.57 1014.95 1015.25 1015.49 1015.55 1015.78 1015.78 1015.82 1015.67 1015.51 1015.14 1014.58 1014.22 1013.54 1012.80 1012.37 1011.86 1011.47 1011.05 1010.90 1010.68 1010.37 1010.22 1010.29 1010.31 1010.76 1011.36
1002.91 1002.69 1003.61 1004.63 1005.66 1006.62 1007.24 1008.04 1008.61 1009.27 1010.11 1010.94 1011.53 1012.26 1012.82 1013.26 1013.73 1014.23 1014.66 1015.07 1015.39 1015.49 1015.45 1015.56 1015.41 1014.99 1014.40 1013.94 1013.42 1012.68 1012.02 1011.23 1010.59 1010.48 1009.78 1009.58 1009.53 1009.22 1009.08 1008.99 1008.69 1009.17 1009.85
1002.71 1002.38 1002.94 1004.04 1005.08 1005.98 1006.65 1007.47 1008.19 1008.87 1009.62 1010.56 1011.39 1011.94 1012.35 1012.83 1013.20 1013.64 1014.03 1014.25 1014.58 1014.77 1014.84 1014.93 1014.60 1013.95 1013.23 1012.83 1012.24 1011.77 1011.06 1010.39 1008.72 1008.99 1008.49 1007.91 1008.20 1007.83 1007.80 1007.70 1007.58 1007.95 1008.49
1002.63 1002.37 1002.40 1003.47 1004.50 1005.47 1006.19 1007.00 1007.79 1008.44 1009.33 1010.17 1011.11 1011.74 1012.20 1012.47 1012.80 1013.24 1013.57 1013.65 1013.90 1014.00 1013.76 1013.70 1013.47 1013.18 1012.49 1012.06 1011.54 1010.57 1009.90 1009.01 1007.86 1006.94 1007.23 1006.29 1006.55 1006.39 1006.63 1006.50 1006.49 1006.97 1007.42
1002.78 1002.14 1001.87 1002.84 1003.97 1005.07 1005.81 1006.71 1007.46 1008.15 1009.07 1009.91 1010.62 1011.31 1011.93 1012.31 1012.63 1012.99 1013.31 1013.56 1013.75 1013.65 1013.33 1013.01 1012.55 1012.12 1011.67 1010.80 1010.02 1009.14 1008.36 1007.49 1006.68 1005.73 1005.28 1004.67 1004.65 1004.86 1005.36 1005.48 1005.57 1006.31 1007.06
1002.93 1001.71 1001.46 1002.24 1003.42 1004.63 1005.44 1006.50 1007.37 1008.17 1009.09 1009.76 1010.38 1010.96 1011.51 1012.06 1012.33 1012.66 1013.06 1013.51 1013.51 1013.18 1012.59 1012.35 1012.10 1011.50 1010.52 1009.46 1008.77 1008.01 1007.16 1006.52 1005.22 1004.30 1003.22 1003.07 1003.31 1003.90 1004.33 1004.68 1005.17 1005.82 1006.67
1002.52 1001.46 1001.12 1001.74 1002.88 1004.28 1005.30 1006.34 1007.26 1008.13 1008.89 1009.62 1010.19 1010.67 1011.20 1011.65 1012.03 1012.47 1012.88 1013.33 1013.17 1012.87 1012.50 1012.13 1011.67 1010.68 1009.82 1008.78 1007.81 1007.35 1006.48 1005.36 1004.07 1002.78 1001.74 1002.28 1002.42 1002.88 1003.43 1003.94 1004.89 1005.78 1006.76
Wind_Speed
6 5 5 5 4 3 3 3 3 3 1 3 4 4 4 4 5 4 3 10 7 7 7 8 8 8 9 9 10 10 11 12 11 12 10 7 9 9 10 9 10 9 8
5 5 5 5 5 4 4 4 4 2 2 2 3 1 2 2 4 5 4 5 8 7 7 7 7 7 8 8 8 8 9 9 10 11 12 12 11 11 12 11 12 11 11
7 7 5 5 5 4 6 3 3 2 3 0 3 3 3 0 2 4 5 4 4 6 7 6 6 6 7 7 7 8 9 9 9 9 10 11 11 13 10 12 14 14 13
8 7 5 5 5 5 4 4 3 2 2 2 2 3 4 4 4 4 5 3 4 3 4 4 4 3 3 5 6 7 7 9 9 10 10 11 11 11 13 10 13 16 15
8 6 6 6 7 5 4 4 2 3 3 3 3 4 3 4 5 3 6 6 6 5 2 4 1 4 4 3 4 5 5 7 9 10 10 10 11 12 11 12 13 11 18
8 6 5 6 6 5 5 4 4 3 3 3 1 3 3 4 3 3 4 4 5 6 6 4 3 4 7 4 5 6 4 7 8 9 10 11 11 12 13 11 11 13 13
8 7 6 6 7 6 6 6 4 6 2 2 2 4 4 5 5 5 4 4 4 6 6 5 4 3 2 5 7 6 6 10 8 8 10 11 12 12 12 13 13 12 13
10 8 7 7 7 6 7 7 5 3 4 5 4 1 2 4 2 4 4 4 3 2 3 4 4 3 2 2 5 6 7 5 6 10 11 12 12 13 13 13 15 14 12
10 11 8 7 7 6 6 6 6 7 5 3 5 4 0 4 1 2 4 4 4 1 3 2 2 5 4 2 2 4 1 5 9 10 12 13 14 14 14 15 15 15 14
11 11 9 8 9 5 7 7 6 5 4 5 1 3 2 3 2 2 3 2 3 3 1 3 3 3 3 2 4 4 6 9 8 9 12 14 14 15 16 16 16 16 17
11 13 11 10 9 8 7 8 7 7 5 4 4 3 2 0 1 3 3 4 3 2 1 1 3 3 4 3 3 5 8 7 11 14 13 14 15 16 17 17 17 18 18
9 12 13 12 10 10 9 9 7 9 7 5 3 4 4 4 4 3 3 3 3 4 2 4 2 3 4 4 7 10 11 11 12 13 15 16 19 18 17 18 19 20 19
9 12 15 12 10 9 8 8 8 7 7 6 6 4 3 3 3 2 2 2 2 3 3 3 4 4 4 4 5 10 9 9 11 15 17 18 18 18 18 18 20 19 21
11 14 14 14 13 9 9 8 6 6 7 6 7 5 4 4 4 4 4 3 3 3 2 5 3 4 3 4 6 11 4 10 13 14 16 19 19 20 21 21 19 21 21
12 14 15 14 13 12 11 9 7 7 7 6 7 6 4 3 3 4 3 4 5 3 3 3 3 4 4 4 7 6 6 10 18 18 18 17 18 22 22 22 22 21 21
14 15 15 16 13 13 12 10 7 8 8 5 5 7 5 4 4 4 4 3 3 5 5 2 4 4 5 5 7 8 6 15 17 21 20 20 19 19 22 23 21 21 21
12 14 17 16 15 15 15 13 11 10 10 8 6 8 8 7 4 3 2 2 3 3 5 4 4 4 4 6 6 6 8 6 7 19 24 20 17 20 24 24 23 21 22
13 15 17 17 16 15 16 15 14 13 12 10 9 8 7 4 5 5 4 5 5 5 4 7 4 3 5 6 6 8 9 10 8 15 19 20 21 21 23 23 22 21 20
14 14 17 17 16 15 16 15 15 13 10 9 9 8 7 7 5 4 5 5 4 3 3 3 6 3 3 4 10 7 8 12 9 19 22 22 23 25 24 22 23 22 20
15 14 16 16 15 15 15 15 14 10 11 9 8 8 8 8 7 5 4 4 3 3 2 3 4 5 6 5 8 10 10 8 8 9 15 20 26 27 26 25 25 22 23
12 13 15 15 13 13 12 15 14 12 9 9 8 7 7 8 8 8 3 2 3 3 3 4 6 6 9 8 10 8 11 11 11 11 13 11 11 11 12 19 20 23 24
11 10 15 15 14 12 20 21 14 11 9 9 7 7 6 11 11 11 11 12 9 4 5 4 9 10 12 10 10 10 10 12 18 10 13 13 11 12 10 8 16 19 24
10 9 14 15 14 12 22 23 18 8 8 8 8 7 5 4 9 5 6 10 10 13 14 9 11 10 13 6 10 15 16 14 15 14 11 13 10 10 9 10 20 21 24
15 9 13 14 13 11 23 24 20 9 7 8 8 7 7 5 5 4 1 3 5 6 8 9 9 8 9 13 14 14 16 17 15 14 13 13 9 10 8 9 20 21 22
17 10 11 14 14 11 25 24 17 8 8 8 7 7 7 6 5 4 3 5 5 6 10 17 21 25 26 27 24 14 12 11 13 13 11 7 5 7 7 7 8 21 23
14 10 10 14 17 12 24 24 16 6 7 5 6 6 11 8 8 7 3 4 5 6 6 10 10 13 17 18 27 14 11 11 11 9 3 7 5 5 4 5 9 11 11
Wind_Direction
181 166 151 156 183 159 160 147 172 168 122 58 36 33 63 73 66 120 123 107 87 68 62 55 49 49 48 46 41 40 33 27 19 20 11 297 230 225 225 228 220 221 222
172 158 162 165 163 179 162 170 163 137 172 156 133 87 28 101 111 112 139 137 127 105 75 55 47 44 47 46 41 33 24 17 15 17 13 9 357 262 232 218 225 225 223
178 164 166 166 179 167 174 162 137 129 104 253 202 182 159 71 150 145 128 160 148 132 111 79 50 40 39 35 30 23 18 12 6 1 356 353 355 348 294 237 224 226 226
182 164 171 171 172 155 144 147 158 198 175 182 248 225 166 173 217 153 129 105 120 151 138 103 63 34 24 21 16 11 8 4 1 352 343 336 337 338 347 358 262 229 228
190 165 170 172 154 149 157 168 168 160 185 206 236 254 219 186 197 184 165 173 179 163 160 306 301 300 230 348 347 358 356 355 346 342 337 334 329 324 330 331 3 308 235
187 175 172 168 153 153 171 175 161 193 176 188 263 301 245 203 178 217 199 197 180 174 177 196 245 278 214 270 303 328 332 340 341 335 332 330 327 321 318 318 317 320 337
186 185 178 167 158 164 180 176 176 172 199 198 81 296 267 219 193 202 197 225 244 186 177 196 218 224 258 295 306 300 301 317 324 331 330 322 316 318 312 302 309 310 310
187 183 174 175 166 159 177 180 170 163 183 179 167 142 303 335 284 219 191 185 200 186 163 231 225 225 245 238 244 264 245 287 316 322 325 325 318 310 310 305 304 302 309
187 189 179 171 169 163 178 178 174 164 177 207 185 159 123 219 155 257 193 179 153 193 249 204 293 259 246 234 284 311 201 233 298 312 316 315 313 310 307 305 302 302 297
187 191 185 179 174 167 176 178 171 172 152 179 178 226 203 155 157 345 339 179 187 212 264 276 275 296 287 269 245 247 288 298 286 295 297 300 303 304 303 300 297 294 290
193 188 191 186 179 178 174 170 174 171 178 161 158 154 209 212 187 131 263 305 354 308 306 265 281 275 268 252 235 235 258 273 282 288 293 296 298 300 299 294 290 285 285
204 193 195 193 186 180 179 177 173 172 176 183 178 165 166 162 198 181 202 254 223 280 304 295 290 285 272 262 252 240 248 256 270 284 290 293 297 295 294 294 296 285 277
201 203 194 194 196 181 174 163 166 169 174 171 181 182 166 179 155 155 138 248 242 285 284 283 263 258 258 256 259 260 251 261 269 275 285 285 292 291 290 289 288 284 282
201 201 197 197 192 177 171 162 156 164 166 172 181 177 174 185 164 167 179 179 309 249 279 247 288 284 297 299 285 310 307 290 295 288 282 284 282 283 285 281 281 279 279
197 195 196 198 189 180 172 162 160 166 164 172 180 179 170 191 179 187 184 169 168 283 285 254 276 282 286 281 268 272 262 269 286 287 283 280 278 276 274 276 274 275 274
197 192 191 191 187 180 174 163 164 167 165 177 171 175 187 191 203 203 192 198 181 194 254 253 265 268 274 288 286 289 282 285 284 286 284 280 280 277 282 278 267 273 269
205 191 188 188 185 182 179 171 173 167 171 174 171 177 188 186 190 195 192 212 217 206 250 270 252 260 281 275 287 302 286 271 269 280 281 272 274 280 282 274 268 266 261
219 190 182 187 187 184 180 178 174 177 173 173 183 174 185 182 200 205 200 225 229 237 226 267 251 276 256 261 271 276 269 272 263 268 277 270 266 274 272 269 266 261 252
225 191 180 183 188 186 181 183 179 173 170 169 171 172 181 186 206 204 215 222 232 244 252 264 283 273 266 303 291 275 282 274 264 264 266 270 277 280 270 265 261 249 239
229 188 178 182 186 187 184 182 178 168 167 168 172 172 180 186 189 207 225 239 263 298 300 297 294 300 286 280 286 284 284 266 270 271 271 271 274 274 258 271 252 239 223
270 188 174 177 183 187 185 183 176 173 160 163 165 171 176 175 200 211 171 254 299 290 284 281 283 283 282 286 275 275 275 277 270 270 270 261 260 258 261 262 259 225 214
268 195 174 176 181 189 190 181 172 165 157 155 164 173 170 200 219 228 245 255 240 225 242 247 269 274 287 283 277 278 282 283 287 254 258 257 242 250 241 240 227 212 205
260 232 177 177 180 183 186 182 165 149 145 150 158 162 174 181 194 172 235 268 286 289 289 282 279 279 283 288 288 283 278 270 271 281 264 254 230 229 243 234 211 208 201
274 257 182 171 170 177 183 179 162 142 141 158 161 168 168 159 153 142 155 286 283 276 275 275 276 289 291 292 284 286 288 281 276 272 260 257 230 227 224 217 202 195 191
282 254 181 161 163 172 176 173 156 142 148 158 162 155 147 148 173 233 210 259 285 280 292 308 310 305 300 296 298 296 287 289 283 277 268 213 194 204 196 187 187 189 183
266 257 175 159 159 157 173 170 156 140 145 151 156 158 161 163 190 220 209 259 293 279 299 303 297 293 295 294 298 294 282 276 271 276 228 177 172 164 171 158 170 173 176